Weather History for Portland Troutdale, OR

Change the Weather History Date:

Friday, November 2, 2012

  Actual Average Record
Temperature  
Mean Temperature 56 °F 49 °F  
Max Temperature 63 °F 57 °F 68 °F (1959)
Min Temperature 49 °F 41 °F 28 °F (1973)
Degree Days  
Heating Degree Days 9 16  
Month to date heating degree days 17 32  
Cooling Degree Days 0 0  
Month to date cooling degree days 0 0  
Growing Degree Days 4 (Base 50)    
Moisture  
Dew Point 49 °F    
Average Humidity 79    
Maximum Humidity 93    
Minimum Humidity 64    
Precipitation  
Precipitation 0.09 in 0.21 in 2.15 in (1984)
Month to date precipitation 0.53 0.42  
Year to date precipitation 36.58 32.94  
Snow  
Snow 0.00 in - - ()
Month to date snowfall 0.0  
Since 1 July snowfall 0.0  
Since 1 September snowfall 0.0  
Snow Depth 0.00 in    
Sea Level Pressure  
Sea Level Pressure 30.01 in    
Wind  
Wind Speed 8 mph (ESE)    
Max Wind Speed 17 mph    
Max Gust Speed 22 mph    
Visibility 9 miles    
Events Rain    
T = Trace of Precipitation, MM = Missing Value Source: NWS Daily Summary

Daily Weather History Graph

Daily Weather History Graph

Search for Another Location

Airport:

Trip Planner

Search our weather history database for the weather conditions in past years. The results will help you decide how hot, cold, wet, or windy it might be!

Date:

Astronomy

Nov. 02, 2012 Rise Set
Actual Time 7:51 AM PDT 5:54 PM PDT
Civil Twilight 7:20 AM PDT 6:25 PM PDT
Nautical Twilight 6:45 AM PDT 7:00 PM PDT
Astronomical Twilight 6:10 AM PDT 7:34 PM PDT
Moon 8:40 PM PDT (11/2) 11:22 AM PDT (11/2)
Length of Visible Light 11h 04m
Length of Day
10h 02m
Waning Gibbous, 86% of the Moon is Illuminated
Nov 2
Waning Gibbous
Nov 6
Last Quarter
Nov 13
New
Nov 20
First Quarter
Nov 28
Full

Hourly Weather History & Observations

Time (PDT) Temp. Dew Point Humidity Pressure Visibility Wind Dir Wind Speed Gust Speed Precip Events Conditions
12:53 AM 53.1 °F 50.0 °F 89% 30.04 in 10.0 mi East 3.5 mph - N/A   Clear
1:53 AM 52.0 °F 48.9 °F 89% 30.04 in 10.0 mi Calm Calm - N/A   Clear
2:37 AM 48.2 °F 46.4 °F 93% 30.04 in 1.8 mi Calm Calm - N/A   Clear
2:53 AM 50.0 °F 48.0 °F 93% 30.04 in 7.0 mi East 3.5 mph - N/A   Clear
3:35 AM 48.2 °F 48.2 °F 100% 30.04 in 2.5 mi Calm Calm - N/A   Partly Cloudy
3:49 AM 50.0 °F 48.2 °F 94% 30.04 in 10.0 mi Calm Calm - N/A   Scattered Clouds
3:53 AM 50.0 °F 48.0 °F 93% 30.04 in 10.0 mi Calm Calm - N/A   Mostly Cloudy
4:53 AM 50.0 °F 48.0 °F 93% 30.04 in 10.0 mi ESE 3.5 mph - N/A   Clear
5:53 AM 52.0 °F 48.0 °F 86% 30.03 in 10.0 mi ESE 5.8 mph - N/A   Clear
6:53 AM 53.1 °F 50.0 °F 89% 30.00 in 10.0 mi ESE 12.7 mph - N/A   Clear
7:53 AM 53.1 °F 48.9 °F 86% 30.01 in 10.0 mi East 6.9 mph - N/A   Scattered Clouds
8:53 AM 54.0 °F 48.9 °F 83% 30.02 in 10.0 mi East 11.5 mph - N/A   Mostly Cloudy
9:53 AM 57.0 °F 50.0 °F 77% 30.02 in 10.0 mi East 13.8 mph - N/A   Clear
10:53 AM 57.0 °F 48.9 °F 74% 30.03 in 10.0 mi ESE 13.8 mph - N/A   Mostly Cloudy
11:53 AM 60.1 °F 50.0 °F 69% 30.01 in 10.0 mi East 13.8 mph - N/A   Clear
12:53 PM 61.0 °F 48.0 °F 62% 30.00 in 10.0 mi ESE 11.5 mph - N/A   Partly Cloudy
1:53 PM 61.0 °F 48.0 °F 62% 29.98 in 10.0 mi East 11.5 mph - N/A   Overcast
2:53 PM 57.9 °F 48.9 °F 72% 29.99 in 10.0 mi East 6.9 mph - 0.00 in Rain Light Rain
3:53 PM 55.9 °F 50.0 °F 80% 29.99 in 10.0 mi East 10.4 mph - 0.04 in Rain Light Rain
4:53 PM 55.9 °F 51.1 °F 84% 29.99 in 10.0 mi East 3.5 mph - 0.02 in   Overcast
5:53 PM 55.9 °F 50.0 °F 80% 29.97 in 10.0 mi East 11.5 mph - 0.00 in Rain Light Rain
6:53 PM 55.9 °F 50.0 °F 80% 29.99 in 10.0 mi ESE 9.2 mph - 0.00 in   Overcast
7:53 PM 55.9 °F 50.0 °F 80% 30.01 in 10.0 mi SW 3.5 mph - N/A   Overcast
8:53 PM 54.0 °F 51.1 °F 90% 30.00 in 9.0 mi East 3.5 mph - 0.02 in Rain Light Rain
9:53 PM 55.0 °F 51.1 °F 86% 30.00 in 9.0 mi East 5.8 mph - 0.00 in Rain Light Rain
10:53 PM 55.0 °F 51.1 °F 86% 30.00 in 10.0 mi East 6.9 mph - 0.00 in Rain Light Rain
11:53 PM 55.0 °F 51.1 °F 86% 30.00 in 10.0 mi East 8.1 mph - 0.01 in   Overcast